Voltar ao catálogo

FOSSASAT2E26

AtivoRádio AmadorSSO
NORAD 69899·PAYLOAD·🇺🇸 United States

Lançado Jul 7, 2026 de Vandenberg Space Force Base

Loading…

Próximas Passagens (próximas 24 horas)

TLE

AtualizadoSource: Space-Track

Época: Sep 14, 2026, 12:31 UTC

1 69899U 26156AG  26257.52200033  .00001459  00000-0  15199-3 0  9995
2 69899  97.7426 156.7430 0003254 263.2918  96.7930 14.91302114 10314

Acompanhe FOSSASAT2E26 em tempo real com AllMySat

Download on the App Store